Temp
17 18 17 17 17 16 16 16 15 15 14 14 14 14 14 14 13 14 15 12 13 13 13 13 11 11 10 10 10 10 9 9 9 9 8 8 8 8 7 7 7 7 7
17 17 16 16 16 16 16 16 16 15 15 14 14 13 13 13 13 13 14 13 12 12 12 12 11 11 10 10 10 9 9 9 9 8 8 8 8 7 7 7 7 7 7
16 16 16 16 16 15 15 15 14 14 15 14 14 13 13 12 13 12 13 13 13 11 11 11 11 10 10 10 9 9 9 9 9 9 8 8 8 7 7 7 7 6 6
15 15 15 15 15 15 15 15 15 15 15 14 14 13 13 12 12 12 12 12 12 12 11 10 10 10 9 9 9 9 9 9 9 9 9 8 8 8 7 7 6 6 6
14 15 15 15 14 15 14 14 14 15 14 14 14 13 12 12 11 11 11 11 10 11 11 10 9 9 9 9 8 8 9 9 8 8 8 8 8 8 7 7 6 6 6
15 15 15 14 14 14 14 14 14 14 14 14 14 13 12 11 11 11 11 11 10 10 10 10 10 10 8 8 8 7 7 8 8 8 7 7 7 7 7 6 6 6 6
14 15 15 13 14 14 14 13 13 13 13 12 13 13 12 10 10 11 10 10 10 9 9 9 9 10 9 8 7 6 6 7 6 6 6 6 6 6 6 6 6 6 6
14 14 14 14 14 13 12 12 13 13 13 12 13 13 16 13 10 10 10 10 9 9 9 8 8 8 8 8 7 6 5 5 5 5 5 5 5 5 5 5 5 5 6
14 14 13 14 13 13 13 12 12 12 13 11 10 12 14 16 14 12 9 9 9 9 8 8 7 7 7 6 6 6 4 4 3 3 4 4 4 4 4 4 5 5 5
13 13 13 13 12 13 12 12 12 12 11 11 9 9 10 12 14 14 11 9 9 8 8 7 7 7 6 6 6 4 3 3 3 2 2 2 2 3 3 3 4 4 4
12 12 12 12 12 12 12 11 10 10 10 9 9 11 11 11 10 11 12 12 11 10 8 7 7 6 6 5 5 4 2 2 2 1 0 1 1 1 2 2 2 3 3
12 11 11 11 11 11 10 10 10 9 8 7 10 11 11 11 12 11 11 11 10 9 8 7 6 6 6 5 4 3 1 1 1 1 -0 -1 -0 0 0 1 1 1 2
10 10 10 10 10 10 10 9 9 7 7 8 9 10 9 9 9 9 9 9 10 9 8 8 6 6 5 5 4 2 1 0 -0 -1 -1 -2 -2 -1 -1 -1 -0 0 1
10 10 10 9 10 9 8 9 8 8 7 8 8 8 9 8 8 8 8 8 8 8 8 8 7 6 5 4 3 2 1 1 -0 -2 -2 -3 -3 -2 -2 -2 -1 -1 -0
10 10 9 9 8 8 9 8 7 6 7 8 8 7 7 8 7 7 7 7 7 7 8 8 7 6 4 4 3 2 1 0 -1 -2 -3 -3 -3 -3 -3 -3 -2 -2 -1
10 9 9 8 7 8 8 7 7 7 8 7 7 7 7 7 7 6 6 6 6 6 6 6 6 5 4 3 2 1 1 -1 -1 -1 -3 -3 -4 -4 -4 -4 -3 -3 -3
10 8 8 8 7 8 7 7 7 7 6 5 6 6 6 6 6 6 6 6 6 6 5 6 5 5 4 2 2 1 1 -0 -0 -1 -2 -3 -4 -4 -4 -4 -4 -4 -4
8 7 8 7 8 7 6 6 6 6 5 5 6 7 6 6 6 6 6 5 5 5 5 5 5 4 4 3 1 0 0 -0 -0 -1 -2 -3 -4 -4 -5 -5 -4 -4 -4
7 8 8 7 6 6 6 6 6 5 4 5 6 6 6 6 6 6 6 5 5 5 4 4 4 4 3 2 1 1 0 -0 -0 -1 -1 -2 -3 -4 -4 -4 -4 -4 -4
7 7 7 6 6 6 5 4 4 3 3 4 4 5 5 6 6 6 5 5 5 4 4 4 4 3 3 2 1 1 1 0 -0 -1 -1 -1 -2 -2 -3 -3 -3 -4 -4
6 6 5 5 5 3 4 4 3 2 2 4 5 5 5 5 5 5 5 5 5 4 4 3 3 3 3 2 2 1 -0 -0 -1 -1 -1 -1 -1 -1 -1 -1 -1 -2 -3
5 5 4 4 4 4 4 3 3 2 2 4 5 5 5 4 3 3 3 3 3 3 3 3 3 2 2 2 1 0 -0 -1 0 -0 -1 -1 -1 -1 -1 -0 -1 -2 -3
4 5 4 5 4 5 4 3 2 1 3 4 4 5 5 5 4 3 3 2 1 1 1 1 1 1 1 1 0 -1 -1 -1 -1 -2 -2 -1 -1 -1 -1 -0 -1 -2 -3
4 4 4 4 4 3 3 2 2 1 3 4 4 4 4 4 4 4 3 3 2 1 -0 -1 -1 0 0 -1 -1 -2 -2 -2 -2 -2 -2 -1 -1 -1 -1 -1 -1 -2 -3
4 4 3 3 2 2 3 2 2 2 3 3 3 3 3 3 3 3 2 2 2 2 1 -0 -1 -1 -2 -3 -3 -3 -3 -2 -2 -1 -2 -2 -2 -2 -2 -2 -1 -2 -2
3 3 3 4 3 3 3 2 2 1 2 2 2 3 2 2 1 1 1 1 1 1 1 -0 -2 -3 -3 -4 -5 -5 -4 -3 -2 -2 -2 -2 -2 -3 -2 -3 -2 -2 -2
Height
865 868 870 872 874 874 877 878 880 881 882 881 882 883 883 882 881 880 881 879 878 878 878 879 878 879 879 878 878 878 877 877 876 876 875 874 874 872 871 870 869 867 866
864 867 869 871 872 875 876 877 880 880 881 882 881 881 882 881 881 881 881 880 878 876 876 877 878 878 878 878 878 878 877 877 876 875 874 873 873 871 870 869 868 867 866
864 866 868 870 872 873 874 876 878 879 879 880 880 881 881 880 881 880 880 879 877 875 875 875 876 877 877 877 877 877 876 876 876 875 873 873 872 870 869 868 868 867 866
862 865 867 869 870 871 873 876 877 878 877 879 880 880 880 879 879 878 879 877 876 875 875 875 875 875 875 876 876 876 876 875 875 874 873 872 870 869 868 867 866 865 864
860 863 865 866 868 870 871 874 876 876 877 878 878 879 879 879 878 878 877 877 876 875 874 874 875 874 874 874 874 874 873 873 872 871 871 870 868 867 866 865 864 863 861
859 862 864 864 866 869 869 872 874 874 876 877 877 877 877 876 876 877 877 876 874 874 874 873 872 871 872 872 872 871 871 871 870 869 868 867 866 865 863 863 862 860 858
857 860 862 862 865 866 868 870 873 873 875 876 876 874 874 875 874 873 873 873 872 872 872 871 870 869 869 868 869 869 869 869 868 867 866 865 864 863 861 860 858 857 855
855 857 859 860 863 864 868 869 870 872 874 875 874 873 866 868 871 871 871 870 870 870 869 868 868 868 868 867 866 865 865 865 864 864 863 862 860 859 857 855 854 852 850
852 854 855 858 860 862 865 866 867 868 870 872 873 873 864 860 862 862 867 867 867 867 866 865 865 865 864 865 864 863 860 861 861 861 860 859 857 855 853 852 850 847 845
850 850 851 854 856 858 861 863 863 864 866 867 867 867 868 865 860 857 860 862 863 863 862 863 862 861 862 861 860 860 858 858 857 856 856 855 854 852 850 848 845 843 840
846 848 850 852 854 854 856 860 861 861 862 864 864 863 864 863 863 862 856 855 857 857 858 859 859 859 859 858 857 856 855 855 854 853 852 851 849 847 845 842 839 837 834
842 845 848 850 853 853 854 857 858 858 858 861 862 860 859 858 856 856 855 853 853 854 855 856 856 855 855 855 854 853 852 851 850 848 847 845 843 841 838 835 832 830 827
836 839 843 846 849 851 853 854 855 856 856 857 858 859 858 857 856 855 855 852 850 849 850 850 852 853 853 852 852 850 850 847 845 842 840 838 836 834 831 828 826 823 821
829 832 837 841 845 847 850 851 853 854 858 856 857 856 855 855 854 853 852 851 848 847 845 844 846 848 849 848 847 847 847 844 840 837 834 832 829 827 824 821 819 816 814
824 828 833 836 839 842 846 848 851 854 853 855 854 852 854 853 852 852 851 850 848 845 841 841 843 843 845 845 844 843 842 839 834 831 828 825 822 819 817 814 812 810 807
820 824 830 833 836 838 842 844 846 853 853 854 853 851 850 850 850 849 848 847 845 843 840 841 839 838 839 839 839 838 835 832 828 825 822 819 816 813 810 807 805 803 801
814 819 823 828 830 833 837 841 846 849 849 850 849 848 847 846 846 846 845 845 842 841 839 836 834 833 833 836 835 832 829 827 822 820 816 813 810 807 804 800 798 796 793
813 818 822 824 826 831 835 839 843 847 846 845 843 843 842 842 841 841 841 840 839 837 836 831 830 829 828 828 829 827 825 822 817 814 810 807 804 801 797 794 792 790 787
810 816 821 824 829 832 835 840 840 843 842 842 840 838 836 837 836 836 835 835 833 832 831 829 826 825 824 824 823 821 819 816 811 808 804 801 798 795 791 788 786 783 780
809 813 817 822 826 831 831 835 839 838 838 837 835 834 832 831 830 830 829 828 828 827 826 824 822 820 819 818 818 816 812 810 805 803 799 795 792 788 784 782 779 777 774
807 812 815 818 821 828 829 831 835 834 833 832 829 827 826 824 823 823 823 821 821 820 820 818 816 815 813 812 811 811 809 805 801 798 794 790 787 783 779 776 773 771 769
808 812 813 817 821 825 825 827 829 829 828 827 823 821 819 817 816 815 815 815 816 815 813 813 812 810 808 808 807 807 805 802 796 794 790 786 784 778 774 770 768 766 764
810 812 816 818 820 822 822 824 825 824 823 821 818 815 812 810 809 810 808 807 807 807 808 808 806 805 804 804 804 803 801 798 794 791 789 781 779 773 770 765 764 761 758
813 815 817 818 818 819 819 820 820 819 818 815 812 810 807 804 802 801 801 800 800 800 800 800 800 799 799 799 800 799 798 795 791 787 784 777 774 769 766 762 759 756 754
814 815 815 816 816 816 816 815 816 815 812 808 806 803 800 797 795 794 794 793 792 791 792 790 792 792 792 793 794 795 793 790 785 781 779 775 771 767 763 758 753 751 749
812 812 813 814 814 813 813 812 811 810 806 802 799 796 793 791 788 788 787 786 783 783 784 782 783 783 784 786 787 788 788 785 781 777 775 773 769 767 758 755 751 749 744
Wind_Speed
13 12 12 11 11 12 10 10 10 8 7 6 5 4 5 6 7 6 5 6 4 4 5 6 6 6 6 5 4 3 3 4 4 3 5 6 6 9 11 13 14 16 15
11 11 10 10 10 10 10 9 8 6 5 4 4 3 4 5 5 5 5 4 6 4 2 4 8 7 5 4 3 1 1 1 1 1 4 5 4 7 9 10 12 14 13
11 11 10 10 10 10 10 9 7 6 5 3 3 3 3 3 3 3 3 4 5 7 2 4 5 5 5 5 3 3 4 3 3 8 6 4 6 8 11 8 12 13 12
12 12 11 11 12 11 10 8 7 5 3 1 1 1 1 2 2 2 1 2 3 2 2 5 6 6 6 3 3 6 8 10 12 12 12 11 12 12 11 10 12 13 13
13 12 12 13 13 11 10 9 7 4 3 1 1 2 3 4 3 2 2 1 1 1 1 3 7 8 9 9 6 8 11 13 13 13 14 14 14 14 12 12 14 14 15
15 13 13 14 13 12 11 9 8 5 3 1 2 4 5 5 5 6 5 4 3 2 4 6 7 8 10 10 12 11 12 13 15 15 14 15 15 15 15 16 15 16 17
14 15 14 14 14 12 11 10 8 5 3 1 3 6 7 8 8 8 7 6 5 5 6 7 8 7 9 9 12 10 11 12 13 14 15 15 16 17 18 18 18 19 20
16 15 16 15 14 13 12 10 8 5 3 2 3 7 5 7 9 10 9 8 8 7 8 8 8 9 11 10 9 12 13 11 11 13 15 16 18 19 20 20 20 22 22
17 17 16 16 16 14 13 11 10 8 5 4 5 6 4 7 4 9 10 8 7 8 9 9 9 10 10 11 13 12 11 14 12 13 15 18 19 19 21 22 23 24 25
18 17 18 18 18 16 15 14 12 10 7 9 11 13 12 8 5 5 8 10 8 9 9 9 10 11 12 13 13 15 17 13 14 14 12 15 18 21 23 25 27 28 29
17 18 19 19 19 17 16 14 13 11 11 14 11 8 9 9 8 7 8 9 9 10 9 11 11 12 14 13 13 13 13 14 14 15 17 20 23 26 28 30 30 31 31
19 19 19 19 17 15 15 14 12 11 12 11 10 10 10 9 9 10 9 12 12 13 9 10 11 13 13 13 12 13 15 16 19 21 22 22 24 26 27 29 29 29 30
21 22 23 20 18 16 15 13 13 11 11 11 10 10 10 10 9 10 11 13 12 12 12 10 12 13 14 13 14 14 13 20 24 26 24 23 23 24 25 26 27 28 28
24 27 26 23 19 16 15 12 13 10 10 9 9 10 10 9 9 10 11 12 9 14 15 12 11 14 14 15 14 19 19 20 23 24 26 24 23 24 25 25 26 27 27
27 26 28 24 20 19 15 13 8 11 10 9 9 9 11 10 10 10 10 12 13 10 10 14 15 12 13 17 17 19 22 23 24 29 24 23 24 24 25 25 26 27 27
25 22 24 22 18 19 17 15 11 12 7 7 9 10 10 11 12 11 13 14 14 16 11 16 17 15 14 18 19 19 23 23 25 24 23 23 24 25 26 27 27 27 28
25 26 26 23 22 22 19 14 12 9 8 11 12 12 12 12 13 14 14 15 16 16 16 21 18 17 15 18 20 21 22 24 24 23 21 24 26 25 26 26 27 27 26
24 21 23 23 24 18 15 17 13 9 7 13 15 16 16 15 15 16 17 17 18 18 19 21 20 20 20 17 20 21 21 22 23 23 23 26 26 26 25 23 22 24 25
19 18 19 17 13 12 15 13 10 7 17 16 18 19 20 20 19 18 18 19 18 19 19 19 21 20 20 18 20 20 20 21 21 21 23 24 21 22 22 24 25 26 27
14 17 18 16 15 13 13 8 11 20 20 19 20 22 23 23 22 20 21 20 19 20 20 20 20 20 19 18 18 20 20 19 21 21 22 21 22 23 25 23 24 24 24
12 15 15 18 15 14 12 16 17 18 19 20 21 22 23 25 25 24 23 21 19 20 19 19 20 19 19 17 17 18 19 19 20 19 20 20 22 24 22 21 21 21 18
14 18 14 14 15 15 15 19 23 22 19 22 23 22 22 24 26 29 28 26 24 21 21 20 20 20 20 18 17 18 17 18 17 16 20 24 22 23 22 21 19 23 26
13 13 13 13 14 15 21 22 24 17 20 22 22 23 23 23 22 24 24 25 27 27 27 24 22 22 20 18 17 18 17 18 20 21 21 24 22 23 21 20 19 24 22
8 8 9 11 13 13 18 18 17 18 21 23 23 23 24 25 25 24 24 25 23 24 23 23 24 23 20 18 16 17 17 20 21 20 18 22 22 21 21 23 22 21 18
4 5 6 11 14 15 13 17 16 18 21 22 22 23 23 24 25 25 25 27 26 26 26 26 27 23 23 23 22 17 17 17 18 19 17 19 17 22 23 24 17 10 21
3 4 6 9 12 14 15 17 19 19 22 24 24 24 23 24 26 26 26 26 28 28 26 25 20 23 25 22 20 18 18 19 18 18 16 17 20 21 17 21 14 23 22
Wind_Direction
162 164 162 159 160 149 148 143 143 138 126 98 75 48 18 9 11 6 350 336 307 279 241 246 181 164 151 136 124 120 94 58 86 50 16 16 16 17 14 17 15 10 7
172 174 167 160 150 153 152 152 155 145 132 111 72 44 20 21 18 18 355 354 3 3 289 225 207 182 175 166 157 174 139 79 56 322 315 335 354 1 358 360 1 359 355
177 175 170 160 161 165 153 150 147 146 130 96 50 30 18 20 11 9 353 348 354 3 329 179 169 187 220 227 233 253 257 263 296 312 317 291 308 325 331 335 340 343 342
185 178 170 171 171 162 165 168 167 151 130 72 34 347 308 298 298 334 338 7 352 11 12 227 184 201 204 194 245 264 279 290 299 303 304 299 296 304 311 315 325 326 326
184 179 181 178 171 172 171 172 166 158 142 167 245 263 282 268 258 228 202 184 110 330 292 279 261 244 244 255 280 281 283 289 293 297 298 299 301 302 302 304 313 312 314
195 186 191 181 176 180 172 172 162 154 156 229 276 260 284 249 229 226 221 232 245 233 271 275 268 256 266 273 276 281 285 287 290 292 296 300 301 301 300 301 298 300 302
196 195 196 185 183 182 177 166 162 156 167 208 304 276 263 240 230 225 224 253 233 263 277 273 261 264 291 292 286 281 286 291 294 296 299 299 300 299 297 294 292 294 296
198 197 197 188 185 177 173 172 171 175 175 191 307 297 284 218 225 230 242 249 250 257 289 273 267 270 285 283 286 284 273 275 285 289 292 294 296 296 294 292 293 293 294
205 201 193 188 183 182 181 179 181 182 197 214 242 277 297 294 322 210 232 249 237 271 293 284 274 274 275 271 282 279 277 276 280 296 295 295 296 296 295 294 294 294 293
206 198 192 188 186 185 186 190 187 184 182 217 225 238 255 277 275 272 204 229 249 277 289 285 281 278 276 279 282 277 271 279 281 286 300 299 296 295 294 293 292 291 290
200 196 196 192 193 189 189 191 185 190 219 222 233 231 243 247 255 273 284 282 271 278 281 286 290 289 285 280 279 274 275 282 290 293 301 298 295 293 291 290 288 287 287
199 197 199 197 198 193 188 190 194 219 240 226 241 243 248 255 263 263 270 280 291 288 281 287 289 290 288 283 274 265 285 288 292 297 300 298 295 293 292 291 290 289 287
197 198 196 194 196 193 191 191 219 234 214 219 228 247 251 255 262 270 279 286 291 293 280 268 277 290 288 280 279 272 283 299 301 302 301 300 297 295 294 292 290 288 287
201 203 195 194 192 191 196 220 228 212 227 224 236 246 258 257 258 265 278 292 292 288 282 280 279 280 278 276 274 284 293 293 299 296 299 297 295 294 292 290 290 289 288
208 210 201 195 191 197 213 220 198 219 215 231 241 241 252 262 264 271 276 278 281 287 288 292 292 283 273 278 277 283 288 295 290 294 296 296 295 293 292 290 289 289 288
207 206 199 194 194 201 204 200 205 220 225 257 266 254 251 263 267 268 271 272 271 277 286 289 286 287 281 280 282 285 291 294 297 295 293 292 293 293 292 290 287 285 285
209 201 198 197 200 201 199 199 201 206 221 291 259 250 254 258 261 265 266 270 272 269 262 277 285 288 279 279 284 289 291 294 295 296 295 292 292 295 293 289 285 285 285
216 205 203 201 204 192 194 192 201 207 310 280 255 256 257 259 258 263 264 268 270 270 273 280 287 289 285 281 286 288 290 292 294 294 293 294 296 295 290 288 286 286 285
208 203 200 202 192 199 193 199 195 257 291 281 268 264 261 258 258 262 265 265 269 271 268 274 282 285 284 282 281 285 289 292 293 296 297 299 296 291 288 286 285 284 284
189 189 190 198 204 199 181 166 230 257 288 280 271 266 261 256 257 261 263 263 266 270 272 273 277 283 281 282 282 283 289 295 298 302 302 299 294 293 289 282 284 283 284
175 177 176 190 185 179 189 227 243 266 287 281 277 271 262 255 253 252 258 263 264 266 269 272 277 278 279 280 283 293 291 295 298 300 302 302 304 301 295 290 281 279 280
162 173 162 182 186 203 231 236 249 277 279 279 277 275 269 262 257 249 245 248 252 265 263 268 273 276 278 278 284 286 288 294 296 303 309 304 304 301 297 291 290 294 300
163 179 199 196 206 245 258 255 268 272 279 279 280 279 276 269 257 255 254 253 249 245 246 258 266 268 274 276 283 281 281 288 294 301 303 300 305 302 298 295 293 298 301
169 180 211 250 262 258 262 272 272 274 280 280 280 279 276 273 266 256 255 250 249 250 245 247 248 259 264 268 270 273 281 285 287 291 298 296 306 302 305 299 294 291 297
225 252 259 268 273 279 275 278 275 284 281 281 282 279 276 274 270 264 248 253 254 255 253 246 242 244 246 254 261 265 272 277 287 294 302 297 303 311 310 303 290 280 308
276 275 276 275 275 277 277 279 287 286 282 282 283 281 279 274 272 263 250 249 255 258 254 246 244 248 248 254 254 244 260 268 282 291 297 294 301 308 309 299 301 309 304